Regional Weather Roundup
Issued by NWS

Home | Current Version | Previous Version | Graphics & Text | Print | Product List | Glossary Off
Versions: 1 2 3 4 5 6 7 8 9 10 11 12 13 14 15 16 17 18 19 20 21 22 23 24 25 26 27 28 29 30 31 32 33 34 35 36 37 38 39 40 41 42 43 44 45 46 47 48 49 50

000
ASUS43 KLSX 192207
RWRMO

WEATHER SUMMARY FOR MISSOURI
NATIONAL WEATHER SERVICE SPRINGFIELD MO
500 PM CDT SAT APR 19 2014

NOTE: "FAIR" INDICATES FEW OR NO CLOUDS BELOW 12,000 FEET WITH NO
       SIGNIFICANT WEATHER AND/OR OBSTRUCTIONS TO VISIBILITY.
       CURRENT SKY AND/OR WEATHER CONDITIONS ARE NOT AVAILABLE FOR
       CHILLICOTHE AND FARMINGTON.

MOZ001>031-035>038-043-044-053-054-192300-
...NORTHERN AND WESTERN MISSOURI...

CITY           SKY/WX    TMP DP  RH WIND       PRES   REMARKS
KANSAS CTY INT PTSUNNY   76  44  32 S20       30.06F
KANSAS C DTWN  SUNNY     77  45  32 S14G23    30.05F
LEE`S SUMMIT   SUNNY     75  45  34 S10G22    30.09S
ST JOSEPH      SUNNY     78  44  29 S20G29    30.03F
CHILLICOTHE      N/A     77  45  32 S13G23    30.08F
KIRKSVILLE     MOSUNNY   77  42  28 S12G17    30.11F

$$
MOZ066>068-077>081-088>096-101>105-192300-
...SOUTHWEST MISSOURI...

CITY           SKY/WX    TMP DP  RH WIND       PRES   REMARKS
SPRINGFIELD    PTSUNNY   75  45  34 SE8       30.12F
JOPLIN         SUNNY     76  46  34 S15       30.10F

$$
MOZ032>034-039>042-045>050-055>058-069>072-192300-
...CENTRAL MISSOURI...

CITY           SKY/WX    TMP DP  RH WIND       PRES   REMARKS
COLUMBIA       SUNNY     76  41  28 SE10      30.13F
JEFFERSON CITY SUNNY     77  38  24 SE8       30.12F
ROLLA          SUNNY     76  40  27 S8        30.13F
SEDALIA        MOSUNNY   77  44  30 S8        30.11F
WHITEMAN AFB   SUNNY     76  44  32 S13G22    30.09F
OSAGE BEACH    SUNNY     77  37  24 S13       30.14F

$$
MOZ051-052-059>065-192300-
...EAST CENTRAL MISSOURI...

CITY           SKY/WX    TMP DP  RH WIND       PRES   REMARKS
ST LOUIS INTL  PTSUNNY   75  39  27 E6        30.18F
SPIRIT OF STL  MOSUNNY   74  41  30 E10       30.16F
ST CHARLES     MOSUNNY   74  41  30 S8        30.17F

$$
MOZ072>076-082>087-097>100-106>115-192300-
...SOUTH CENTRAL AND SOUTHEAST MISSOURI...

CITY           SKY/WX    TMP DP  RH WIND       PRES   REMARKS
CAPE GIRARDEAU SUNNY     76  42  29 SE8       30.15F
FARMINGTON     SUNNY     73  39  29 E8        30.19F
POPLAR BLUFF   SUNNY     76  40  27 E7        30.15F
WEST PLAINS    SUNNY     74  39  28 S9        30.16F

$$



USA.gov is the U.S. government's official web portal to all federal, state and local government web resources and services.